When you browse on this site, cookies collect data to enhance your experience and personalize the content and advertising you see.
Visit our Privacy Policy to learn more. By continuing to use the site, you agree to this use of cookies and data.
EN

Hourly Weather Zelenche

Today, 12 August, Wednesday

Time Temperature Precipitation Wind Pressure Humidity
00:00 +18°C° 0.2 mm 2 mps 732 mmHg 82%
01:00 +18°C° 0.2 mm 2 mps 732 mmHg 86%
02:00 +17°C° 0.2 mm 2 mps 732 mmHg 90%
03:00 +17°C° 0 mm 2 mps 732 mmHg 92%
04:00 +16°C° 0 mm 3 mps 732 mmHg 93%
05:00 +16°C° 0 mm 3 mps 732 mmHg 95%
06:00 +17°C° 0 mm 3 mps 732 mmHg 92%
07:00 +18°C° 0 mm 3 mps 732 mmHg 89%
08:00 +19°C° 0 mm 4 mps 732 mmHg 86%
09:00 +20°C° 0.1 mm 4 mps 733 mmHg 82%
10:00 +20°C° 0.1 mm 5 mps 733 mmHg 77%
11:00 +21°C° 0.1 mm 5 mps 733 mmHg 73%
12:00 +22°C° 0 mm 5 mps 733 mmHg 69%
13:00 +22°C° 0 mm 5 mps 733 mmHg 65%
14:00 +22°C° 0 mm 5 mps 733 mmHg 61%
15:00 +22°C° 0 mm 5 mps 733 mmHg 61%
16:00 +22°C° 0 mm 4 mps 733 mmHg 61%
17:00 +21°C° 0 mm 4 mps 733 mmHg 61%
18:00 +19°C° 0 mm 3 mps 734 mmHg 65%
19:00 +18°C° 0 mm 3 mps 734 mmHg 70%
20:00 +16°C° 0 mm 2 mps 734 mmHg 74%
21:00 +16°C° 0 mm 2 mps 734 mmHg 76%
22:00 +15°C° 0 mm 2 mps 734 mmHg 77%
23:00 +15°C° 0 mm 2 mps 734 mmHg 78%

Tomorrow, 13 August, Thursday

Time Temperature Precipitation Wind Pressure Humidity
00:00 +14°C° 0 mm 1 mps 734 mmHg 81%
01:00 +13°C° 0 mm 1 mps 734 mmHg 83%
02:00 +13°C° 0 mm 1 mps 734 mmHg 86%
03:00 +12°C° 0 mm 1 mps 734 mmHg 86%
04:00 +12°C° 0 mm 1 mps 734 mmHg 87%
05:00 +12°C° 0 mm 1 mps 734 mmHg 87%
06:00 +13°C° 0 mm 1 mps 734 mmHg 82%
07:00 +15°C° 0 mm 1 mps 734 mmHg 76%
08:00 +18°C° 0 mm 1 mps 734 mmHg 70%
09:00 +19°C° 0 mm 1 mps 734 mmHg 65%
10:00 +20°C° 0 mm 1 mps 734 mmHg 59%
11:00 +22°C° 0 mm 1 mps 734 mmHg 54%
12:00 +22°C° 0 mm 1 mps 734 mmHg 51%
13:00 +23°C° 0 mm 1 mps 734 mmHg 48%
14:00 +24°C° 0 mm 1 mps 733 mmHg 46%
15:00 +24°C° 0 mm 1 mps 733 mmHg 47%
16:00 +23°C° 0 mm 1 mps 733 mmHg 48%
17:00 +23°C° 0 mm 2 mps 733 mmHg 49%
18:00 +20°C° 0 mm 2 mps 733 mmHg 55%
19:00 +18°C° 0 mm 2 mps 732 mmHg 61%
20:00 +17°C° 0 mm 2 mps 732 mmHg 67%
21:00 +16°C° 0 mm 1 mps 732 mmHg 70%
22:00 +15°C° 0 mm 1 mps 733 mmHg 73%
23:00 +14°C° 0 mm 1 mps 733 mmHg 76%

Day after tomorrow, 14 August, Friday

Time Temperature Precipitation Wind Pressure Humidity
00:00 +14°C° 0 mm 1 mps 733 mmHg 76%
01:00 +14°C° 0 mm 1 mps 732 mmHg 77%
02:00 +14°C° 0 mm 1 mps 732 mmHg 78%
03:00 +13°C° 0 mm 1 mps 732 mmHg 79%
04:00 +13°C° 0 mm 1 mps 732 mmHg 80%
05:00 +12°C° 0 mm 1 mps 732 mmHg 81%
06:00 +14°C° 0 mm 1 mps 732 mmHg 76%
07:00 +16°C° 0 mm 1 mps 732 mmHg 72%
08:00 +17°C° 0 mm 2 mps 732 mmHg 67%
09:00 +19°C° 0 mm 2 mps 732 mmHg 63%
10:00 +20°C° 0 mm 2 mps 733 mmHg 59%
11:00 +21°C° 0 mm 2 mps 733 mmHg 55%
12:00 +23°C° 0 mm 2 mps 733 mmHg 53%
13:00 +23°C° 0 mm 2 mps 732 mmHg 51%
14:00 +24°C° 0 mm 2 mps 732 mmHg 49%
15:00 +24°C° 0 mm 2 mps 732 mmHg 51%
16:00 +24°C° 0 mm 3 mps 732 mmHg 53%
17:00 +24°C° 0 mm 3 mps 731 mmHg 55%
18:00 +21°C° 0 mm 3 mps 732 mmHg 62%
19:00 +19°C° 0 mm 3 mps 732 mmHg 68%
20:00 +17°C° 0 mm 3 mps 732 mmHg 75%
21:00 +15°C° 0 mm 4 mps 732 mmHg 74%
22:00 +15°C° 0 mm 4 mps 732 mmHg 73%
23:00 +14°C° 0 mm 4 mps 732 mmHg 71%

15 August, Saturday

Time Temperature Precipitation Wind Pressure Humidity
00:00 +13°C° 0 mm 4 mps 732 mmHg 72%
01:00 +13°C° 0 mm 4 mps 732 mmHg 73%
02:00 +12°C° 0 mm 3 mps 732 mmHg 73%
03:00 +12°C° 0 mm 3 mps 732 mmHg 74%
04:00 +12°C° 0 mm 4 mps 732 mmHg 74%
05:00 +12°C° 0 mm 4 mps 732 mmHg 75%
06:00 +13°C° 0 mm 4 mps 732 mmHg 72%
07:00 +14°C° 0 mm 4 mps 732 mmHg 69%
08:00 +16°C° 0 mm 5 mps 732 mmHg 66%
09:00 +17°C° 0 mm 5 mps 733 mmHg 62%
10:00 +20°C° 0 mm 5 mps 733 mmHg 58%
11:00 +21°C° 0 mm 5 mps 733 mmHg 55%
12:00 +22°C° 0 mm 5 mps 733 mmHg 53%
13:00 +23°C° 0 mm 5 mps 733 mmHg 51%
14:00 +23°C° 0 mm 5 mps 733 mmHg 50%
15:00 +23°C° 0 mm 4 mps 732 mmHg 52%
16:00 +23°C° 0 mm 4 mps 732 mmHg 54%
17:00 +22°C° 0 mm 4 mps 732 mmHg 56%
18:00 +21°C° 0 mm 4 mps 732 mmHg 58%
19:00 +19°C° 0 mm 4 mps 732 mmHg 59%
20:00 +18°C° 0 mm 4 mps 732 mmHg 60%
21:00 +17°C° 0 mm 5 mps 732 mmHg 58%
22:00 +16°C° 0 mm 5 mps 732 mmHg 56%
23:00 +16°C° 0 mm 5 mps 733 mmHg 54%

16 August, Sunday

Time Temperature Precipitation Wind Pressure Humidity
00:00 +16°C° 0 mm 5 mps 733 mmHg 55%
01:00 +16°C° 0 mm 5 mps 733 mmHg 56%
02:00 +15°C° 0 mm 4 mps 733 mmHg 56%
03:00 +15°C° 0 mm 4 mps 733 mmHg 57%
04:00 +14°C° 0 mm 4 mps 733 mmHg 59%
05:00 +14°C° 0 mm 3 mps 733 mmHg 60%
06:00 +14°C° 0 mm 4 mps 733 mmHg 60%
07:00 +15°C° 0 mm 4 mps 733 mmHg 61%
08:00 +17°C° 0 mm 4 mps 733 mmHg 61%
09:00 +18°C° 0 mm 4 mps 734 mmHg 57%
10:00 +20°C° 0 mm 3 mps 734 mmHg 53%
11:00 +21°C° 0 mm 3 mps 735 mmHg 50%
12:00 +21°C° 0 mm 3 mps 734 mmHg 49%
13:00 +21°C° 0 mm 2 mps 734 mmHg 49%
14:00 +23°C° 0 mm 2 mps 734 mmHg 48%
15:00 +21°C° 0 mm 2 mps 734 mmHg 50%
16:00 +21°C° 0 mm 3 mps 734 mmHg 52%
17:00 +21°C° 0 mm 3 mps 734 mmHg 54%
18:00 +19°C° 0 mm 2 mps 734 mmHg 61%
19:00 +17°C° 0 mm 2 mps 733 mmHg 68%
20:00 +15°C° 0 mm 1 mps 733 mmHg 75%
21:00 +14°C° 0 mm 1 mps 733 mmHg 75%
22:00 +14°C° 0 mm 1 mps 733 mmHg 75%
23:00 +14°C° 0 mm 1 mps 734 mmHg 74%

17 August, Monday

Time Temperature Precipitation Wind Pressure Humidity
00:00 +13°C° 0 mm 1 mps 734 mmHg 74%
01:00 +13°C° 0 mm 2 mps 734 mmHg 74%
02:00 +13°C° 0 mm 2 mps 733 mmHg 74%
03:00 +13°C° 0 mm 2 mps 733 mmHg 74%
04:00 +12°C° 0 mm 2 mps 733 mmHg 74%
05:00 +12°C° 0 mm 2 mps 733 mmHg 74%
06:00 +14°C° 0 mm 2 mps 733 mmHg 70%
07:00 +16°C° 0 mm 3 mps 734 mmHg 66%
08:00 +18°C° 0 mm 3 mps 734 mmHg 62%
09:00 +20°C° 0 mm 3 mps 734 mmHg 57%
10:00 +21°C° 0 mm 4 mps 734 mmHg 52%
11:00 +23°C° 0 mm 4 mps 734 mmHg 47%
12:00 +25°C° 0 mm 4 mps 734 mmHg 45%
13:00 +26°C° 0 mm 4 mps 734 mmHg 43%
14:00 +26°C° 0 mm 4 mps 734 mmHg 41%
15:00 +26°C° 0 mm 3 mps 733 mmHg 42%
16:00 +26°C° 0 mm 3 mps 733 mmHg 44%
17:00 +26°C° 0 mm 3 mps 733 mmHg 45%
18:00 +24°C° 0 mm 2 mps 733 mmHg 47%
19:00 +21°C° 0 mm 2 mps 733 mmHg 50%
20:00 +19°C° 0 mm 2 mps 732 mmHg 52%
21:00 +19°C° 0 mm 2 mps 733 mmHg 53%
22:00 +18°C° 0 mm 3 mps 733 mmHg 54%
23:00 +17°C° 0 mm 3 mps 733 mmHg 55%
Show more